Voltar ao catálogo

COSMOS 1823 DEB

AtivoLEO
NORAD 18751·DEBRIS·🇷🇺 Russia

Lançado Feb 20, 1987 de Plesetsk Cosmodrome

Loading…

Próximas Passagens (próximas 24 horas)

TLE

AtualizadoSource: Space-Track

Época: Sep 14, 2026, 09:07 UTC

1 18751U 87020AC  26257.38004782  .00000017  00000-0  27236-3 0  9994
2 18751  73.6265 261.3168 0076146  29.9447  35.6257 12.33031830743229

Acompanhe COSMOS 1823 DEB em tempo real com AllMySat

Download on the App Store